EDT,Max TemperatureF,Mean TemperatureF,Min TemperatureF,Max Dew PointF,MeanDew PointF,Min DewpointF,Max Humidity, Mean Humidity, Min Humidity, Max Sea Level PressureIn, Mean Sea Level PressureIn, Min Sea Level PressureIn, Max VisibilityMiles, Mean VisibilityMiles, Min VisibilityMiles, Max Wind SpeedMPH, Mean Wind SpeedMPH, Max Gust SpeedMPH,PrecipitationIn, CloudCover, Events, WindDirDegrees
2013-3-1,33,30,27,25,23,21,83,74,67,29.84,29.80,29.76,10,10,7,16,10,24,0.00,8,Snow,313
2013-3-2,32,26,20,23,19,12,81,73,57,29.83,29.79,29.75,10,9,3,22,8,33,0.00,8,Snow,317
2013-3-3,26,22,18,14,11,8,74,64,54,29.87,29.83,29.78,10,8,2,21,14,39,0.00,8,Snow,313
2013-3-4,42,30,19,10,5,-2,64,39,19,30.02,29.95,29.84,10,10,10,33,18,51,0.00,1,,297
2013-3-5,40,36,32,38,28,7,96,76,30,30.00,29.81,29.57,10,6,0,24,2,36,0.44,7,Fog-Rain-Snow,213
2013-3-6,29,28,23,27,20,16,85,77,65,30.01,29.75,29.55,10,5,0,37,21,60,0.14,8,Snow,306
2013-3-7,32,28,24,22,20,18,88,76,64,30.20,30.12,30.00,10,10,10,18,12,31,0.00,7,,307
2013-3-8,40,32,24,21,18,17,75,59,39,30.27,30.20,30.14,10,10,10,22,10,31,0.00,1,,316
2013-3-9,57,42,27,25,20,12,77,46,18,30.29,30.25,30.22,10,10,10,8,2,,0.00,0,,134
2013-3-10,57,46,36,29,26,23,66,47,29,30.26,30.21,30.16,10,10,10,12,2,18,0.00,2,,153
2013-3-11,47,44,40,46,38,29,95,81,54,30.16,30.01,29.87,10,7,0,8,4,22,0.19,7,Fog-Rain,155
2013-3-12,48,42,36,47,35,25,95,75,49,29.94,29.86,29.76,10,8,0,29,9,46,0.29,4,Fog-Rain,289
2013-3-13,36,30,23,26,18,11,80,59,42,30.06,29.99,29.94,10,9,1,25,14,36,0.00,6,Snow,289
2013-3-14,38,28,19,14,9,5,75,48,25,30.16,30.10,30.04,10,10,4,25,15,39,0.00,3,Snow,302
2013-3-15,56,44,31,34,23,10,68,44,29,30.11,30.00,29.90,10,10,10,24,9,34,0.00,0,,269
2013-3-16,67,60,53,47,39,35,75,50,34,29.91,29.83,29.75,10,10,5,26,13,37,0.03,3,Rain,268
2013-3-17,56,46,34,46,43,34,96,80,65,30.07,29.97,29.91,10,8,0,12,5,22,0.00,8,Rain,110
2013-3-18,35,32,30,35,32,29,99,97,94,30.07,29.97,29.81,7,1,0,7,3,,0.15,8,Fog-Rain-Snow,143
2013-3-19,48,42,35,44,21,-4,96,52,16,30.02,29.90,29.80,10,10,4,29,9,46,0.02,2,Rain,288
2013-3-20,44,36,28,26,4,-5,86,29,13,30.02,29.91,29.76,10,10,1,22,10,32,0.00,1,Snow,283
2013-3-21,29,23,17,26,8,3,89,54,41,29.86,29.75,29.68,10,9,0,30,14,39,0.00,4,Snow,312
2013-3-22,43,30,17,13,3,-5,63,38,14,29.95,29.90,29.84,10,10,10,15,6,18,0.00,2,,293
2013-3-23,48,40,32,34,27,12,83,65,40,29.97,29.93,29.86,10,10,10,9,2,16,0.00,6,Rain,317
2013-3-24,38,34,30,34,32,30,98,91,74,29.88,29.67,29.49,10,4,0,7,1,,0.51,8,Fog-Rain-Snow,136
2013-3-25,32,29,26,31,22,17,96,77,60,29.72,29.54,29.45,10,4,0,34,14,53,0.01,8,Snow,277
2013-3-26,31,28,25,23,20,18,78,70,60,30.05,29.89,29.73,10,7,2,22,14,38,0.00,8,Snow,307
2013-3-27,32,28,25,22,16,14,82,61,49,30.17,30.12,30.04,10,9,1,17,11,33,0.00,7,Snow,317
2013-3-28,41,34,27,18,16,13,61,50,33,30.24,30.18,30.13,10,10,10,17,7,29,0.00,3,,319
2013-3-29,47,39,31,26,16,8,65,42,21,30.26,30.22,30.17,10,10,10,20,7,28,0.00,2,,286
2013-3-30,56,44,32,33,26,20,90,56,27,30.20,30.13,30.05,10,10,7,9,1,,0.00,3,,155
2013-3-31,55,48,42,46,41,33,95,80,59,30.05,29.90,29.84,10,7,0,20,4,33,0.11,7,Rain,264